Weather History for Dayton, OH

Change the Weather History Date:

Thursday, June 27, 2013

  Actual Average Record
Temperature  
Mean Temperature 78 °F 73 °F  
Max Temperature 86 °F 83 °F 102 °F (1944)
Min Temperature 69 °F 64 °F 48 °F (1927)
Degree Days  
Heating Degree Days 0 0  
Month to date heating degree days 11 22  
Since 1 June heating degree days 11 22  
Since 1 July heating degree days 5457 5642  
Cooling Degree Days 13 8  
Month to date cooling degree days 189 163  
Year to date cooling degree days 320 233  
Since 1 June cooling degree days 189 163  
Growing Degree Days 28 (Base 50)    
Moisture  
Dew Point 68 °F    
Average Humidity 77    
Maximum Humidity 97    
Minimum Humidity 57    
Precipitation  
Precipitation 0.17 in 0.13 in 3.23 in (1932)
Month to date precipitation 2.99 3.76  
Year to date precipitation 17.29 20.80  
Snow  
Snow 0.00 in 0.00 in 0.00 in ()
Month to date snowfall 0.0 0.0  
Since 1 June snowfall 0.0 0.0  
Since 1 July snowfall 36.3 23.3  
Snow Depth 0.00 in    
Sea Level Pressure  
Sea Level Pressure 29.76 in    
Wind  
Wind Speed 9 mph (WSW)    
Max Wind Speed 18 mph    
Max Gust Speed 25 mph    
Visibility 6 miles    
Events Rain    
T = Trace of Precipitation, MM = Missing Value Source: NWS Daily Summary

Daily Weather History Graph

Daily Weather History Graph

Search for Another Location

Airport:

Trip Planner

Search our weather history database for the weather conditions in past years. The results will help you decide how hot, cold, wet, or windy it might be!

Date:

Astronomy

Jun. 27, 2013 Rise Set
Actual Time 6:10 AM EDT 9:09 PM EDT
Civil Twilight 5:37 AM EDT 9:42 PM EDT
Nautical Twilight 4:56 AM EDT 10:23 PM EDT
Astronomical Twilight 4:07 AM EDT 11:11 PM EDT
Moon No Moon Rise 11:10 AM EDT (6/27)
Length of Visible Light 16h 04m
Length of Day
14h 59m
Waning Gibbous, 76% of the Moon is Illuminated
Jun 27
Waning Gibbous
Jun 30
Last Quarter
Jul 8
New
Jul 15
First Quarter
Jul 22
Full

Hourly Weather History & Observations

Time (EDT) Temp. Heat Index Dew Point Humidity Pressure Visibility Wind Dir Wind Speed Gust Speed Precip Events Conditions
12:56 AM 70.0 °F - 68.0 °F 93% 29.78 in 7.0 mi South 5.8 mph - N/A   Mostly Cloudy
1:19 AM 69.8 °F - 68.0 °F 94% 29.80 in 5.0 mi South 4.6 mph - 0.00 in Rain Light Rain
1:31 AM 69.8 °F - 68.0 °F 94% 29.80 in 5.0 mi South 5.8 mph - 0.01 in Rain Light Rain
1:56 AM 70.0 °F - 68.0 °F 93% 29.77 in 4.0 mi South 6.9 mph - 0.02 in Rain Light Rain
2:37 AM 69.8 °F - 68.0 °F 94% 29.79 in 7.0 mi South 10.4 mph - 0.02 in   Overcast
2:56 AM 69.1 °F - 66.9 °F 93% 29.77 in 10.0 mi SW 6.9 mph - 0.02 in   Overcast
3:35 AM 69.8 °F - 66.2 °F 88% 29.79 in 7.0 mi SW 5.8 mph - 0.00 in Rain Light Rain
3:42 AM 69.8 °F - 66.2 °F 88% 29.78 in 1.8 mi Calm Calm - 0.07 in Rain Heavy Rain
3:46 AM 69.8 °F - 68.0 °F 94% 29.79 in 1.8 mi WSW 3.5 mph - 0.09 in Rain Rain
3:52 AM 69.8 °F - 66.2 °F 88% 29.79 in 1.8 mi SW 3.5 mph - 0.09 in Rain Light Rain
3:56 AM 69.1 °F - 66.9 °F 93% 29.77 in 1.8 mi SW 4.6 mph - 0.09 in Rain Light Rain
3:58 AM 69.8 °F - 66.2 °F 88% 29.78 in 5.0 mi SW 4.6 mph - 0.00 in Rain Light Rain
4:56 AM 69.1 °F - 68.0 °F 96% 29.76 in 4.0 mi SSW 6.9 mph - 0.00 in   Overcast
5:56 AM 69.1 °F - 68.0 °F 96% 29.76 in 4.0 mi SW 9.2 mph - N/A   Overcast
6:38 AM 69.8 °F - 68.0 °F 94% 29.78 in 2.0 mi WSW 8.1 mph - 0.00 in Rain Light Rain
6:56 AM 69.1 °F - 68.0 °F 96% 29.77 in 2.0 mi WSW 9.2 mph - 0.00 in   Overcast
7:40 AM 69.8 °F - 68.0 °F 94% 29.79 in 3.0 mi West 9.2 mph - N/A   Overcast
7:48 AM 69.8 °F - 68.0 °F 94% 29.79 in 1.5 mi West 8.1 mph - N/A   Overcast
7:56 AM 69.1 °F - 68.0 °F 96% 29.77 in 1.5 mi West 8.1 mph - 0.00 in Rain Light Rain
8:05 AM 69.8 °F - 68.0 °F 94% 29.79 in 1.5 mi West 9.2 mph - 0.00 in   Overcast
8:56 AM 70.0 °F - 69.1 °F 97% 29.77 in 1.5 mi West 9.2 mph - 0.00 in   Overcast
9:31 AM 71.6 °F - 69.8 °F 94% 29.79 in 4.0 mi West 10.4 mph - N/A   Overcast
9:56 AM 72.0 °F - 70.0 °F 93% 29.77 in 5.0 mi West 8.1 mph - N/A   Overcast
10:20 AM 73.4 °F - 69.8 °F 88% 29.79 in 6.0 mi WNW 11.5 mph - N/A   Overcast
10:33 AM 73.4 °F - 69.8 °F 88% 29.79 in 6.0 mi WNW 8.1 mph - N/A   Overcast
10:45 AM 73.4 °F - 69.8 °F 88% 29.78 in 6.0 mi West 8.1 mph - N/A   Overcast
10:56 AM 73.9 °F - 70.0 °F 87% 29.76 in 7.0 mi WNW 11.5 mph - N/A   Overcast
11:43 AM 78.8 °F - 69.8 °F 74% 29.79 in 9.0 mi NW 9.2 mph - N/A   Scattered Clouds
11:56 AM 79.0 °F - 70.0 °F 74% 29.77 in 10.0 mi WNW 10.4 mph - N/A   Mostly Cloudy
12:56 PM 81.0 °F 84.4 °F 70.0 °F 69% 29.76 in 10.0 mi West 10.4 mph - N/A   Mostly Cloudy
1:56 PM 82.9 °F 86.5 °F 69.1 °F 63% 29.76 in 10.0 mi NW 10.4 mph 18.4 mph N/A   Mostly Cloudy
2:56 PM 82.9 °F 86.5 °F 69.1 °F 63% 29.76 in 10.0 mi NW 12.7 mph 19.6 mph N/A   Mostly Cloudy
3:56 PM 84.9 °F 88.8 °F 69.1 °F 59% 29.75 in 10.0 mi WNW 10.4 mph - N/A   Mostly Cloudy
4:56 PM 86.0 °F 90.1 °F 69.1 °F 57% 29.74 in 10.0 mi WNW 16.1 mph 21.9 mph N/A   Mostly Cloudy
5:56 PM 84.9 °F 88.2 °F 68.0 °F 57% 29.73 in 10.0 mi WNW 15.0 mph - N/A   Partly Cloudy
6:56 PM 84.0 °F 87.0 °F 68.0 °F 58% 29.73 in 10.0 mi WNW 19.6 mph 25.3 mph N/A   Mostly Cloudy
7:56 PM 81.0 °F 83.8 °F 68.0 °F 65% 29.74 in 10.0 mi WNW 12.7 mph - N/A   Mostly Cloudy
8:56 PM 78.1 °F - 69.1 °F 74% 29.73 in 10.0 mi West 6.9 mph - N/A   Mostly Cloudy
9:56 PM 75.0 °F - 69.1 °F 82% 29.71 in 10.0 mi WSW 5.8 mph - N/A   Mostly Cloudy
10:56 PM 75.2 °F - 69.8 °F 83% 29.70 in 10.0 mi WSW 6.9 mph - N/A   Mostly Cloudy
11:56 PM 75.0 °F - 69.1 °F 82% 29.68 in 10.0 mi NW 3.5 mph - N/A   Scattered Clouds